Regional Weather Roundup
Issued by NWS

Home | Current Version | Previous Version | Text Only | Print | Product List | Glossary Off
Versions: 1 2 3 4 5 6 7 8 9 10 11 12 13 14 15 16 17 18 19 20 21 22 23 24 25 26 27 28 29 30 31 32 33 34 35 36 37 38 39 40 41 42 43 44 45 46 47 48 49 50

000
ASUS43 KFSD 212210
RWRSD

WEATHER ROUNDUP FOR SOUTH DAKOTA
NATIONAL WEATHER SERVICE SIOUX FALLS SD
500 PM CDT SUN SEP 21 2014

NOTE: "FAIR" INDICATES FEW OR NO CLOUDS BELOW 12,000 FEET WITH NO
SIGNIFICANT WEATHER AND/OR OBSTRUCTIONS TO VISIBILITY.


SDZ001>005-009-010-012>017-212300-
NORTHWEST AND NORTH CENTRAL SOUTH DAKOTA

CITY           SKY/WX    TMP DP  RH WIND       PRES   REMARKS
BUFFALO          N/A     73  31  21 VRB5      30.19F
FAITH            N/A     71  37  28 SE5       30.26F
MOBRIDGE       SUNNY     73  42  32 VRB3      30.22F
$$

SDZ012>016-024>037-041>051-057-063-072>074-212300-
SOUTHWEST AND SOUTH CENTRAL SOUTH DAKOTA

CITY           SKY/WX    TMP DP  RH WIND       PRES   REMARKS
RAPID CTY ARPT SUNNY     73  37  27 S8        30.27F
PIERRE         SUNNY     73  42  32 NW8       30.23F
CUSTER         SUNNY     67  33  28 S8        30.35F
ELLSWORTH AFB  SUNNY     74  38  27 VRB3      30.27F
PHILIP         SUNNY     76  32  20 N5        30.25F
PINE RIDGE     SUNNY     74  39  28 E9        30.28F
WINNER         FAIR      74  37  26 N9        30.26F
$$

SDZ004>011-016>023-039-040-212300-
NORTHEAST SOUTH DAKOTA

CITY           SKY/WX    TMP DP  RH WIND       PRES   REMARKS
ABERDEEN       MOSUNNY   71  46  40 N6        30.23S
WATERTOWN      MOSUNNY   67  44  43 NW12      30.23S
SISSETON         N/A     69  47  45 N12       30.21S
$$

SDZ017-020-022-023-036>040-048>070-212300-
SOUTHEAST SOUTH DAKOTA

CITY           SKY/WX    TMP DP  RH WIND       PRES   REMARKS
SIOUX FALLS    MOSUNNY   71  45  39 NW15      30.22S
HURON          MOSUNNY   72  44  36 N9G20     30.23S
CHAMBERLAIN    SUNNY     72  40  31 N6        30.24F
MITCHELL       SUNNY     72  44  36 N8G16     30.24S
YANKTON        MOSUNNY   70  45  40 N9        30.23F
$$

ABBREVIATIONS USED IN REMARKS
   TC - TEMPERATURE IN CELSIUS
  WCI - WIND CHILL INDEX
   HX - HEAT INDEX
  VSB - VISIBILITY



USA.gov is the U.S. government's official web portal to all federal, state and local government web resources and services.